Weather in Topar

Kazakhstan     49°31′16″N   72°49′37″E
temp.,
°C
wind,
m/s
gust,
m/s
humid.,
%
clouds,
%
prec.,
mm/h
press.,
hPa
HPBL,
m
12 may, wed
wed1200:00+9n36580 0.0 1024104
03:00+7nne33610 0.0 102441
06:00+7n33640 0.0 102632
09:00+13n46450 0.0 1026561
12:00+16n56325 0.0 10252015
15:00+18n56285 0.0 10242063
18:00+18n5832100 0.0 10242331
21:00+14wnw4448100 0.0 102441
13 may, thu
thu1300:00+12w3651100 0.0 102376
03:00+12w3554100 0.0 102284
06:00+11wnw3557100 0.0 102275
09:00+14n5858100 0.0 1022580
12:00+17n784594 0.0 10211762
15:00+18n7733100 0.0 10211998
18:00+17n783833 0.0 10221973
21:00+15n355354 0.0 1023154
14 may, fri
fri1400:00+13w2262100 0.0 102125
03:00+12sw0175100 0.3 102230
06:00+11nnw35855 0.3 1022108
09:00+13nne6878100 0.1 1024819
12:00+16nne68535 0.1 10251577
15:00+19ne78345 0.0 10251943
18:00+18ne67330 0.0 10261888
21:00+14ne46515 0.0 102875
15 may, sat
sat1500:00+12ene33575 0.0 102823
03:00+10e22631 0.0 102811
06:00+10e11675 0.0 102910
09:00+16ne114643 0.0 1029472
12:00+19nne2235100 0.0 10281260
15:00+21nne33310 0.0 10261591
18:00+22nne34290 0.0 10251708
21:00+17ene224325 0.0 102511
16 may, sun
sun1600:00+14sse22473 0.0 102411
03:00+13wsw11515 0.0 102311
06:00+13nnw11530 0.0 102411
09:00+20nnw22380 0.0 1023369
12:00+23n23330 0.0 10221293
15:00+26nne34295 0.0 10212793
18:00+26nne453085 0.0 10192698
21:00+20ene224363 0.0 101911